DECAYED

STARLINK-2129, 47727 (Decayed)

Orbit data source: Space-Track

STARLINK-2129, 47727 was a payload satellite owned by SpaceX/Seattle (US) in LEO that was launched on Thu, 04 Mar 2021 UTC via an FALCON 9 launch vehicle from the Air Force Eastern Test Range (AFETR). Payload-class satellites include a variety of spacecraft equipped with specific instruments for various scientific and technological missions. These include communications satellites like Starlink; space stations such as the ISS; scientific satellites like the Hubble; Earth observation satellites from companies like Planet Labs, Umbra, and HawkEye 360; GPS; miniature CubeSats for education and research; and military/defense satellites.

Not visible in the next 10 days
Identifier
47727, 2021-017F
Orbit
Decayed
Country
Flag of USUS
Related business
Manufacturer
SpaceX/Seattle
Mission
Decayed Commercial Communications
Bus & Motor
STARLINK, Unknown motor
Mass
260 kg wet, ~248 kg dry
Launch date (UTC)
2021-03-04 (5 years ago)
Launch vehicle
FALCON 9
Launch site
Air Force Eastern Test Range (AFETR)
Object type
Payload
Rocket body
Debris
Shape & HBR
Box + 1 Pan, 10.1 m
Radar Cross Section
13.562 m², Large (>1 m²)

Expand to show TLE details & history
Last TLE update: 10 months ago

TLE from 10 months ago
0 STARLINK-2129
1 47727U 21017F   25034.56750933  .20303465  12534-4  66269-3 0  9994
2 47727  53.0222  73.9346 0003329  43.8021  94.9150 16.44740771218741
Epoch: 2025-02-03T13:37Z
TLE epoch observation values (Epoch: 2025-02-03T13:37:12.806Z)
Latitude
31.88711°
Longitude
-112.11167°
Altitude
155.407 km
Speed
7.817 km/s
True Right ascension
15h 04m 42s
True Declination
31° 43' 08"
Sunlit
Object was in daylight at epoch
Visualization orbit readout
Latitude
Unknown
Longitude
Unknown
Altitude
Unknown
Speed
Unknown
Apparent Right ascension
Unknown
Apparent Declination
Unknown
Sunlit
N/A
Visualization observer readout
Local Sidereal Time
07:26:31
Azimuth
Unknown
Elevation
Unknown
Doppler factor
Unknown
Orbital elements
Apogee altitude
155.688 km
Perigee altitude
151.339 km
Semi-major axis
6,531.651 km
Eccentricity
0.00033
Inclination
53.0222°
RAAN
73.9346°
Arg. of periapsis
43.8021°
True anomaly
94.95301°
Mean anomaly
94.915°
Eccentric anomaly
94.934°
Mean motion
4.11158 °/min
Orbital period
87.56 mins
BSTAR
0.00066269
Loading maneuver chart data...
Computing Atmospheric mass density...
Loading historical data...
Loading historical data...
Loading historical data...
Loading historical data...
Loading historical data...
Loading historical data...
Loading historical data...

Documentation

Showing up to 5 results
|